|  Orbital Elements
Epoch 2021 July 5.0 TT = JDT 2459400.5
T 2020 Sept. 10.72847 TT                                Rudenko
q   2.1426055            (2000.0)            P               Q
n   0.13508180     Peri.  117.65514     +0.79761908     +0.58131369
a   3.7618790      Node   207.73411     -0.59857919     +0.79570057
e   0.4304427      Incl.   20.22308     +0.07420752     +0.17010288
P   7.30
From 2145 observations 2005 Apr. 17-2021 Sept. 2, mean residual 0".6.
     Nongravitational parameters A1 = -0.14, A2 = -0.0301.
 |